Regional Weather Roundup
Issued by NWS

Home | Current Version | Previous Version | Text Only | Print | Product List | Glossary On
Versions: 1 2 3 4 5 6 7 8 9 10 11 12 13 14 15 16 17 18 19 20 21 22 23 24 25 26 27 28 29 30 31 32 33 34 35 36 37 38 39 40 41 42 43 44 45 46 47 48 49 50
000
ASUS44 KMEG 270510
RWRTN
TENNESSEE HOURLY STATE WEATHER ROUNDUP
NATIONAL WEATHER SERVICE MEMPHIS TN
1200 AM CDT SAT MAY 27 2017

TNZ002-004-019-021-049-052-054-088>092-270600-
WEST TENNESSEE

CITY           SKY/WX    TMP DP  RH WIND       PRES   REMARKS
MEMPHIS INTL   MOCLDY    79  69  71 SW12G22   29.91F
NWS MEMPHIS      N/A     79 N/A N/A MISG        N/A
JACKSON        CLOUDY    78  66  66 SW8       29.91S
DYERSBURG        N/A    N/A N/A N/A MISG        N/A
COVINGTON      CLOUDY    77  70  78 SW6       29.90S
UNION CITY     CLOUDY    75  68  78 S5        29.88S
BOLIVAR        CLOUDY    77  64  65 S6        29.92F
PARIS          CLOUDY    73  66  78 S7        29.89S
HUNTINGDON     CLOUDY    75  64  69 SW3       29.90S
LEXINGTON      CLOUDY    75  61  60 MISG      29.92S
SELMER         CLOUDY    75  63  64 SW6       29.94S
SAVANNAH       CLOUDY    72  64  78 S5        29.94S
$$

TNZ008-025-027-028-033-062-065-066-270600-
NORTH MIDDLE TENNESSEE

CITY           SKY/WX    TMP DP  RH WIND       PRES   REMARKS
NASHVILLE      CLOUDY    73  63  70 S7        29.93F
PORTLAND       CLOUDY    75  61  60 S8        29.92S
CLARKSVILLE    CLOUDY    74  60  61 S7        29.90S
SMYRNA         CLOUDY    73  62  68 S5        29.95S
COOKEVILLE     CLOUDY    68  61  77 S3        29.97S
GALLATIN       CLOUDY    75  61  60 VRB3      29.95S
CROSSVILLE     PTCLDY    67  58  72 CALM      30.03S
$$

TNZ061-075-076-078-094-096-097-270600-
SOUTH MIDDLE TENNESSEE

CITY           SKY/WX    TMP DP  RH WIND       PRES   REMARKS
FAYETTEVILLE   CLEAR     72  63  73 S6        29.98S
TULLAHOMA      CLEAR     64  61  88 S3        30.00S
WINCHESTER     CLEAR     64  61  88 CALM        N/A
MCMINNVILLE    PTCLDY    70  61  73 S3        29.99S
COLUMBIA       CLOUDY    70  64  83 S5        29.93F
SHELBYVILLE    MOCLDY    70  63  78 S6        29.97S
$$

TNZ017-018-042-046-047-270600-
NORTHEAST TENNESSEE

CITY           SKY/WX    TMP DP  RH WIND       PRES   REMARKS
TRI CITIES     PTCLDY    59  57  93 CALM      30.03S
ELIZABETHTON   MOCLDY    59  55  88 CALM      30.04S
$$

TNZ012-013-036-069-073-074-270600-
CENTRAL EAST TENNESSEE

CITY           SKY/WX    TMP DP  RH WIND       PRES   REMARKS
KNOXVILLE      MOCLDY    69  60  73 S3        30.00R
OAK RIDGE      CLOUDY    67  62  84 CALM      30.01S
DOWNTOWN KNOXV CLOUDY    64  63  94 CALM      30.01R
GATLINBURG     CLOUDY    63  59  88 CALM      30.01R
MORRISTOWN     CLOUDY    66  61  82 CALM      30.01F
JACKSBORO      CLOUDY    64  63  94 CALM      30.02F
$$

TNZ083-085-099-270600-
SOUTHEAST TENNESSEE

CITY           SKY/WX    TMP DP  RH WIND       PRES   REMARKS
CHATTANOOGA    CLEAR     70  62  76 CALM      30.00R
$$

SKY/WX REPORTED AS FAIR MEANS FEW OR NO CLOUDS BELOW
12 THOUSAND FEET.





USA.gov is the U.S. government's official web portal to all federal, state and local government web resources and services.